DELTA 1 DEB, 10826

Orbit data source: Space-Track

DELTA 1 DEB, 10826 is space debris in SSO originally from a launch on Thu, 29 Jul 1976 UTC launched from the Air Force Western Test Range (AFWTR). Debris objects in space refer to the collection of defunct objects orbiting the Earth. Examples of debris include non-operational satellites, rocket bodies, and fragments generated from explosions, collisions, or faulty payload assembly.

Loading next visibility...
Identifier
10826, 1976-077BW
Orbit
SSO
Country
Flag of USUS
Related business
Manufacturer
Unknown
Mission
Spacecraft
Bus & Motor
Unknown
Mass
Unknown
Launch date (UTC)
1976-07-29 (50 years ago)
Launch vehicle
Unknown
Launch site
Air Force Western Test Range (AFWTR)
Object type
Payload
Rocket body
Debris
Shape & HBR
Unknown shape, 0.1 m
Radar Cross Section
Medium (>0.1 m² and <1 m²)

Expand to show TLE details & history
Last TLE update: 2 days ago

TLE from 2 days ago
0 DELTA 1 DEB
1 10826U 76077BW  26171.31826794  .00003770  00000-0  20929-1 0  9991
2 10826 101.9406  88.0855 0151994  77.9980  44.5565 12.60345954249398
Epoch: 2026-06-20T07:38Z
TLE epoch observation values (Epoch: 2026-06-20T07:38:18.350Z)
Latitude
54.4934°
Longitude
-97.87261°
Altitude
1,346.707 km
Speed
7.228 km/s
True Right ascension
19h 00m 57s
True Declination
54° 20' 35"
Sunlit
Object was in daylight at epoch
Visualization orbit readout
Latitude
Unknown
Longitude
Unknown
Altitude
Unknown
Speed
Unknown
Apparent Right ascension
Unknown
Apparent Declination
Unknown
Sunlit
N/A
Visualization observer readout
Local Sidereal Time
05:25:31
Azimuth
Unknown
Elevation
Unknown
Doppler factor
Unknown
Orbital elements
Apogee altitude
1,537.573 km
Perigee altitude
1,300.548 km
Semi-major axis
7,797.198 km
Eccentricity
0.0152
Inclination
101.9406°
RAAN
88.0855°
Arg. of periapsis
77.998°
True anomaly
45.79518°
Mean anomaly
44.5565°
Eccentric anomaly
45.17416°
Mean motion
3.15236 °/min
Orbital period
114.2 mins
BSTAR
0.020929
Loading maneuver chart data...
Computing Atmospheric mass density...
Loading historical data...
Loading historical data...
Loading historical data...
Loading historical data...
Loading historical data...
Loading historical data...
Loading historical data...

Documentation

Showing up to 5 results
|